Terminal Aerodrome Forecast
Issued by NWS

Home | Current Version | Previous Version | Text Only | Print | Product List | Glossary On
Versions: 1 2 3 4 5 6 7 8 9 10 11 12 13 14 15 16 17 18 19 20 21 22 23 24 25 26 27 28 29 30 31 32 33 34 35 36 37 38 39 40 41 42 43 44 45 46 47 48 49 50
000
FTUS46 KEKA 210800 AAA
TAFACV
TAF AMD
KACV 210818Z 2108/2206 14004KT 4SM BR BKN011
     FM211100 VRB03KT 3SM BR OVC007
     FM211200 00000KT 1/2SM FG VV002
     FM211600 30005KT 3SM BR BKN004
     FM211800 32012KT P6SM SCT006
     FM220500 34007KT 6SM BR BKN005=

USA.gov is the U.S. government's official web portal to all federal, state and local government web resources and services.